Lid_Strength_Index
12 13 13 13 13 13 13 12 12 12 12 11 11 10 10 10 9 9 9 10 9 8
13 13 13 13 13 13 13 12 13 13 12 12 11 11 11 10 11 10 10 10 9 9
14 14 14 14 14 14 14 13 13 12 12 11 11 11 11 11 11 11 11 10 10 10
14 14 14 14 14 14 13 13 13 12 12 12 12 12 12 12 11 12 12 11 11 11
14 15 15 14 14 13 13 13 13 13 13 12 12 12 13 13 12 12 12 11 11 11
15 15 15 14 14 14 14 14 14 13 13 13 13 13 12 12 11 11 11 11 12 12
15 15 15 15 15 15 14 14 14 14 14 14 13 13 12 11 12 12 12 12 12 12
16 16 16 15 15 15 15 15 15 15 14 14 13 12 12 12 12 13 13 13 12 12
16 16 16 16 16 16 16 16 15 15 14 14 13 11 10 11 12 13 13 14 13 13
16 16 16 16 16 16 16 16 16 15 15 15 14 12 11 12 13 14 14 14 14 14
17 17 17 16 16 16 16 16 16 16 15 15 15 13 12 12 14 14 14 14 14 14
17 17 17 17 18 17 17 17 17 16 16 17 16 14 13 13 15 15 15 15 14 14
18 18 18 18 18 18 18 17 17 17 17 17 17 15 14 14 15 16 15 15 14 13
19 20 19 19 19 19 19 19 20 19 18 18 17 17 14 14 15 15 16 16 16 14